Location: Joplin
(37.0842°N, 94.5131°W)
Time: 03:17:20
(UTC-05:00)

Oscar 11 - Visible Passes

Search period start: 23 May 2019 00:00
Search period end: 02 June 2019 00:00
Orbit: 613 x 626 km, 97.6° (Epoch: 22 May)

Date Brightness Start Highest point End Pass type
(mag) Time Alt. Az. Time Alt. Az. Time Alt. Az.
24 May 9.4 20:53:00 10° SSW 20:56:31 25° W 21:00:04 10° NW visible
25 May 9.8 21:11:09 10° SW 21:13:46 16° W 21:16:25 10° NW visible
30 May 9.7 21:00:02 10° SW 21:03:14 20° W 21:06:28 10° NW visible
31 May 10.0 21:18:31 10° WSW 21:20:30 13° W 21:22:30 10° WNW visible
